Home > Weather > York > Past weeks

Flag for United Kingdom Weather for the Past 2 Weeks in York, England, United Kingdom

Now
37 °F

Partly sunny.


Feels Like: 30 °F
Forecast: 33 / 42 °F
Wind: 10 mph from Northeast

Location: Linton-On-Ouse

Current Time: Feb 13, 2016 at 11:40:35 AM

Latest Report: Feb 13, 2016 at 10:50 AM


Visibility: N/A

Pressure: 29.24 "Hg

Humidity: 93%

Dew point: 36 °F

Location of YorkLocation

Historic Weather in York — Graph

°F

York Temperature Yesterday

Maximum temperature yesterday: 45 °F (at 2:50 PM)
Minimum temperature yesterday: 32 °F (at 12:50 AM)
Average temperature yesterday: 36 °F

High & Low Weather Summary for the Past Weeks

 TemperatureHumidityPressure
High57 °F (Feb 1, 11:50 AM)100% (Jan 31, 7:50 PM)30.21 "Hg (Jan 31, 7:50 PM)
Low30 °F (Feb 11, 10:50 PM)44% (Jan 29, 12:50 PM)28.65 "Hg (Feb 8, 7:50 AM)
Average43 °F76%29.49 "Hg
* Reported Jan 29 9:50 AM — Feb 13 9:50 AM, York, Weather by CustomWeather, © 2016

Note: Actual official high and low records may vary slightly from our data, if they occured in-between our weather recording intervals... More about our weather records

Advertising

York Weather History for the Previous 24 Hours

 ConditionsComfort  
Time TempWeatherWind HumidityBarometerVisibility
9:50 AM
Sat, Feb 13
36 °FPartly sunny.7 mph93%29.24 "Hg4 mi
8:50 AM36 °FPartly sunny.8 mph87%29.24 "Hg6 mi
7:50 AM36 °FPartly sunny.9 mph87%29.27 "Hg4 mi
6:50 AM36 °FOvercast.9 mph87%29.27 "Hg4 mi
5:50 AM34 °FPassing clouds.7 mph93%29.30 "Hg3 mi
4:50 AM34 °FPassing clouds.5 mph93%29.30 "Hg3 mi
3:50 AM36 °FPassing clouds.5 mph87%29.33 "Hg3 mi
2:50 AM36 °FPassing clouds.7 mph87%29.33 "Hg6 mi
1:50 AM36 °FPassing clouds.2 mph87%29.36 "HgN/A
12:50 AM36 °FPassing clouds.5 mph87%29.36 "HgN/A
11:50 PM
Fri, Feb 12
36 °FPassing clouds.6 mph87%29.39 "HgN/A
10:50 PM34 °FPassing clouds.2 mph93%29.39 "HgN/A
9:50 PM32 °FPassing clouds.3 mph100%29.42 "Hg3 mi
8:50 PM32 °FPassing clouds.1 mph93%29.42 "Hg3 mi
7:50 PM34 °FPassing clouds.5 mph93%29.45 "Hg3 mi
6:50 PM37 °FPassing clouds.3 mph81%29.45 "HgN/A
5:50 PM41 °FPassing clouds.5 mph76%29.45 "HgN/A
4:50 PM43 °FPartly sunny.3 mph71%29.42 "HgN/A
3:50 PM43 °FPartly sunny.3 mph76%29.42 "HgN/A
2:50 PM45 °FPartly sunny.6 mph71%29.42 "HgN/A
1:50 PM43 °FScattered clouds.5 mph76%29.42 "HgN/A
12:50 PM43 °FPartly sunny.3 mph76%29.42 "HgN/A
11:50 AM39 °FPartly sunny.1 mph81%29.42 "Hg4 mi
Weather by CustomWeather, © 2016

See weather overviewHow to use our weather pages